Time,TemperatureF,DewpointF,PressureIn,WindDirection,WindDirectionDegrees,WindSpeedMPH,WindSpeedGustMPH,Humidity,HourlyPrecipIn,Conditions,Clouds,dailyrainin,SoftwareType,DateUTC
2016-12-03 00:00:00,53.7,16.8,30.02,ENE,78,1.0,7.0,23,0.00,,---,0.00,VWS V14.00,2016-12-03 08:00:00,
2016-12-03 00:05:00,53.6,17.7,30.02,East,101,2.0,6.0,24,0.00,,---,0.00,VWS V14.00,2016-12-03 08:05:00,
2016-12-03 00:10:00,53.4,17.5,30.02,North,5,0.0,4.0,24,0.00,,---,0.00,VWS V14.00,2016-12-03 08:10:00,
2016-12-03 00:15:00,53.2,17.4,30.02,NE,34,4.0,6.0,24,0.00,,---,0.00,VWS V14.00,2016-12-03 08:15:00,
2016-12-03 00:20:00,53.0,18.1,30.02,NE,42,0.0,4.0,25,0.00,,---,0.00,VWS V14.00,2016-12-03 08:20:00,
2016-12-03 00:30:00,52.4,17.6,30.02,North,9,1.0,3.0,25,0.00,,---,0.00,VWS V14.00,2016-12-03 08:30:00,
2016-12-03 00:35:00,52.2,18.4,30.02,NNE,26,1.0,2.0,26,0.00,,---,0.00,VWS V14.00,2016-12-03 08:35:00,
2016-12-03 00:40:00,52.0,18.2,30.02,NE,51,3.0,4.0,26,0.00,,---,0.00,VWS V14.00,2016-12-03 08:40:00,
2016-12-03 00:45:00,52.0,18.2,30.02,ENE,67,3.0,5.0,26,0.00,,---,0.00,VWS V14.00,2016-12-03 08:45:00,
2016-12-03 00:50:00,51.9,18.1,30.02,NE,40,2.0,5.0,26,0.00,,---,0.00,VWS V14.00,2016-12-03 08:50:00,
2016-12-03 00:55:00,51.8,18.0,30.02,NE,36,4.0,5.0,26,0.00,,---,0.00,VWS V14.00,2016-12-03 08:55:00,
2016-12-03 01:00:00,51.7,17.9,30.02,NNE,28,2.0,6.0,26,0.00,,---,0.00,VWS V14.00,2016-12-03 09:00:00,
2016-12-03 01:05:00,51.8,18.0,30.02,NNE,15,4.0,4.0,26,0.00,,---,0.00,VWS V14.00,2016-12-03 09:05:00,
2016-12-03 01:10:00,51.7,17.9,30.02,NE,53,3.0,4.0,26,0.00,,---,0.00,VWS V14.00,2016-12-03 09:10:00,
2016-12-03 01:15:00,51.7,17.9,30.03,ENE,57,2.0,4.0,26,0.00,,---,0.00,VWS V14.00,2016-12-03 09:15:00,
2016-12-03 01:20:00,51.8,18.0,30.02,North,10,4.0,7.0,26,0.00,,---,0.00,VWS V14.00,2016-12-03 09:20:00,
2016-12-03 01:25:00,51.8,18.0,30.02,NNE,27,3.0,4.0,26,0.00,,---,0.00,VWS V14.00,2016-12-03 09:25:00,
2016-12-03 01:30:00,51.8,18.0,30.03,NE,41,5.0,6.0,26,0.00,,---,0.00,VWS V14.00,2016-12-03 09:30:00,
2016-12-03 01:35:00,51.7,18.8,30.02,NNE,26,2.0,4.0,27,0.00,,---,0.00,VWS V14.00,2016-12-03 09:35:00,
2016-12-03 01:40:00,51.7,18.8,30.03,NNE,32,2.0,6.0,27,0.00,,---,0.00,VWS V14.00,2016-12-03 09:40:00,
2016-12-03 01:45:00,51.7,17.9,30.03,NNE,27,2.0,6.0,26,0.00,,---,0.00,VWS V14.00,2016-12-03 09:45:00,
2016-12-03 01:50:00,51.8,18.0,30.03,NNE,13,6.0,6.0,26,0.00,,---,0.00,VWS V14.00,2016-12-03 09:50:00,
2016-12-03 01:55:00,51.9,18.1,30.03,NE,49,2.0,5.0,26,0.00,,---,0.00,VWS V14.00,2016-12-03 09:55:00,
2016-12-03 02:00:00,51.9,19.0,30.02,ENE,62,1.0,5.0,27,0.00,,---,0.00,VWS V14.00,2016-12-03 10:00:00,
2016-12-03 02:05:00,51.8,18.0,30.03,NE,44,3.0,7.0,26,0.00,,---,0.00,VWS V14.00,2016-12-03 10:05:00,
2016-12-03 02:10:00,51.8,18.0,30.03,East,79,4.0,6.0,26,0.00,,---,0.00,VWS V14.00,2016-12-03 10:10:00,
2016-12-03 02:15:00,51.9,18.1,30.03,NE,47,3.0,3.0,26,0.00,,---,0.00,VWS V14.00,2016-12-03 10:15:00,
2016-12-03 02:20:00,51.9,18.1,30.03,NE,51,4.0,6.0,26,0.00,,---,0.00,VWS V14.00,2016-12-03 10:20:00,
2016-12-03 02:25:00,51.8,18.0,30.03,NE,47,5.0,5.0,26,0.00,,---,0.00,VWS V14.00,2016-12-03 10:25:00,
2016-12-03 02:30:00,51.8,18.0,30.03,ENE,65,3.0,4.0,26,0.00,,---,0.00,VWS V14.00,2016-12-03 10:30:00,
2016-12-03 02:35:00,51.8,18.0,30.03,NNE,27,3.0,5.0,26,0.00,,---,0.00,VWS V14.00,2016-12-03 10:35:00,
2016-12-03 02:40:00,51.8,18.0,30.03,NE,52,1.0,6.0,26,0.00,,---,0.00,VWS V14.00,2016-12-03 10:40:00,
2016-12-03 02:45:00,52.0,17.3,30.03,ENE,72,2.0,3.0,25,0.00,,---,0.00,VWS V14.00,2016-12-03 10:45:00,
2016-12-03 02:50:00,52.3,17.5,30.03,ENE,63,1.0,6.0,25,0.00,,---,0.00,VWS V14.00,2016-12-03 10:50:00,
2016-12-03 02:55:00,52.3,17.5,30.04,ENE,61,6.0,6.0,25,0.00,,---,0.00,VWS V14.00,2016-12-03 10:55:00,
2016-12-03 03:00:00,52.4,17.6,30.04,NNE,17,1.0,6.0,25,0.00,,---,0.00,VWS V14.00,2016-12-03 11:00:00,
2016-12-03 03:05:00,52.4,17.6,30.04,NNE,32,5.0,6.0,25,0.00,,---,0.00,VWS V14.00,2016-12-03 11:05:00,
2016-12-03 03:10:00,52.7,17.9,30.04,ENE,78,7.0,7.0,25,0.00,,---,0.00,VWS V14.00,2016-12-03 11:10:00,
2016-12-03 03:15:00,52.8,17.0,30.04,ENE,59,2.0,7.0,24,0.00,,---,0.00,VWS V14.00,2016-12-03 11:15:00,
2016-12-03 03:20:00,52.7,17.9,30.04,ENE,59,3.0,8.0,25,0.00,,---,0.00,VWS V14.00,2016-12-03 11:20:00,
2016-12-03 03:25:00,52.6,17.8,30.04,ENE,74,2.0,7.0,25,0.00,,---,0.00,VWS V14.00,2016-12-03 11:25:00,
2016-12-03 03:30:00,52.4,16.7,30.04,NE,37,4.0,5.0,24,0.00,,---,0.00,VWS V14.00,2016-12-03 11:30:00,
2016-12-03 03:35:00,52.5,16.8,30.04,ENE,76,1.0,5.0,24,0.00,,---,0.00,VWS V14.00,2016-12-03 11:35:00,
2016-12-03 03:40:00,52.4,16.7,30.04,NNE,32,5.0,5.0,24,0.00,,---,0.00,VWS V14.00,2016-12-03 11:40:00,
2016-12-03 03:45:00,52.5,16.8,30.04,East,79,1.0,5.0,24,0.00,,---,0.00,VWS V14.00,2016-12-03 11:45:00,
2016-12-03 03:50:00,52.6,16.9,30.04,NNE,17,5.0,10.0,24,0.00,,---,0.00,VWS V14.00,2016-12-03 11:50:00,
2016-12-03 03:55:00,52.7,16.9,30.04,NE,34,6.0,7.0,24,0.00,,---,0.00,VWS V14.00,2016-12-03 11:55:00,
2016-12-03 04:00:00,52.8,17.0,30.03,NNE,28,1.0,6.0,24,0.00,,---,0.00,VWS V14.00,2016-12-03 12:00:00,
2016-12-03 04:05:00,52.8,17.0,30.03,ENE,78,5.0,7.0,24,0.00,,---,0.00,VWS V14.00,2016-12-03 12:05:00,
2016-12-03 04:10:00,52.8,17.0,30.03,NNE,25,8.0,8.0,24,0.00,,---,0.00,VWS V14.00,2016-12-03 12:10:00,
2016-12-03 04:15:00,52.7,16.9,30.03,NE,40,3.0,8.0,24,0.00,,---,0.00,VWS V14.00,2016-12-03 12:15:00,
2016-12-03 04:20:00,52.8,17.0,30.03,NE,55,1.0,7.0,24,0.00,,---,0.00,VWS V14.00,2016-12-03 12:20:00,
2016-12-03 04:25:00,52.7,16.9,30.03,ENE,62,5.0,8.0,24,0.00,,---,0.00,VWS V14.00,2016-12-03 12:25:00,
2016-12-03 04:30:00,52.8,17.0,30.03,ENE,69,2.0,11.0,24,0.00,,---,0.00,VWS V14.00,2016-12-03 12:30:00,
2016-12-03 04:35:00,53.0,16.2,30.03,East,85,2.0,8.0,23,0.00,,---,0.00,VWS V14.00,2016-12-03 12:35:00,
2016-12-03 04:40:00,53.1,17.3,30.03,ENE,63,3.0,10.0,24,0.00,,---,0.00,VWS V14.00,2016-12-03 12:40:00,
2016-12-03 04:45:00,53.1,16.3,30.03,ENE,67,2.0,8.0,23,0.00,,---,0.00,VWS V14.00,2016-12-03 12:45:00,
2016-12-03 04:50:00,53.1,17.3,30.04,ENE,57,4.0,10.0,24,0.00,,---,0.00,VWS V14.00,2016-12-03 12:50:00,
2016-12-03 04:55:00,52.9,17.1,30.04,NE,55,2.0,4.0,24,0.00,,---,0.00,VWS V14.00,2016-12-03 12:55:00,
2016-12-03 05:00:00,52.7,16.9,30.04,ENE,69,4.0,4.0,24,0.00,,---,0.00,VWS V14.00,2016-12-03 13:00:00,
2016-12-03 05:05:00,52.4,16.7,30.04,NE,38,2.0,6.0,24,0.00,,---,0.00,VWS V14.00,2016-12-03 13:05:00,
2016-12-03 05:10:00,52.4,16.7,30.04,ENE,67,1.0,4.0,24,0.00,,---,0.00,VWS V14.00,2016-12-03 13:10:00,
2016-12-03 05:15:00,52.3,16.6,30.05,North,9,2.0,6.0,24,0.00,,---,0.00,VWS V14.00,2016-12-03 13:15:00,
2016-12-03 05:20:00,52.3,17.5,30.05,NE,41,1.0,6.0,25,0.00,,---,0.00,VWS V14.00,2016-12-03 13:20:00,
2016-12-03 05:25:00,52.1,17.4,30.05,ENE,74,2.0,4.0,25,0.00,,---,0.00,VWS V14.00,2016-12-03 13:25:00,
2016-12-03 05:30:00,51.8,18.0,30.05,ENE,66,0.0,4.0,26,0.00,,---,0.00,VWS V14.00,2016-12-03 13:30:00,
2016-12-03 05:35:00,51.4,17.7,30.05,East,86,2.0,4.0,26,0.00,,---,0.00,VWS V14.00,2016-12-03 13:35:00,
2016-12-03 05:39:00,51.3,17.6,30.05,NNE,24,6.0,6.0,26,0.00,,---,0.00,VWS V14.00,2016-12-03 13:39:00,
2016-12-03 05:44:00,51.3,17.6,30.05,NW,321,1.0,5.0,26,0.00,,---,0.00,VWS V14.00,2016-12-03 13:44:00,
2016-12-03 05:49:00,51.5,17.8,30.05,NE,39,5.0,6.0,26,0.00,,---,0.00,VWS V14.00,2016-12-03 13:49:00,
2016-12-03 05:54:00,51.7,17.0,30.06,NE,53,1.0,4.0,25,0.00,,---,0.00,VWS V14.00,2016-12-03 13:54:00,
2016-12-03 05:59:00,51.8,17.1,30.07,ENE,78,3.0,6.0,25,0.00,,---,0.00,VWS V14.00,2016-12-03 13:59:00,
2016-12-03 06:04:00,51.7,17.9,30.06,NE,38,6.0,6.0,26,0.00,,---,0.00,VWS V14.00,2016-12-03 14:04:00,
2016-12-03 06:09:00,51.6,17.9,30.07,North,9,5.0,6.0,26,0.00,,---,0.00,VWS V14.00,2016-12-03 14:09:00,
2016-12-03 06:14:00,51.5,16.9,30.06,NE,35,1.0,6.0,25,0.00,,---,0.00,VWS V14.00,2016-12-03 14:14:00,
2016-12-03 06:19:00,51.6,17.0,30.06,NNE,21,9.0,9.0,25,0.00,,---,0.00,VWS V14.00,2016-12-03 14:19:00,
2016-12-03 06:24:00,51.7,17.0,30.07,NE,45,2.0,6.0,25,0.00,,---,0.00,VWS V14.00,2016-12-03 14:24:00,
2016-12-03 06:29:00,51.9,17.2,30.07,NE,47,3.0,8.0,25,0.00,,---,0.00,VWS V14.00,2016-12-03 14:29:00,
2016-12-03 06:34:00,51.8,17.1,30.07,NNE,16,1.0,3.0,25,0.00,,---,0.00,VWS V14.00,2016-12-03 14:34:00,
2016-12-03 06:39:00,51.7,17.0,30.07,NNE,17,2.0,6.0,25,0.00,,---,0.00,VWS V14.00,2016-12-03 14:39:00,
2016-12-03 06:44:00,51.7,17.0,30.07,North,11,2.0,5.0,25,0.00,,---,0.00,VWS V14.00,2016-12-03 14:44:00,
2016-12-03 06:49:00,51.8,17.1,30.07,NE,38,1.0,9.0,25,0.00,,---,0.00,VWS V14.00,2016-12-03 14:49:00,
2016-12-03 06:54:00,51.9,17.2,30.07,East,82,1.0,4.0,25,0.00,,---,0.00,VWS V14.00,2016-12-03 14:54:00,
2016-12-03 06:59:00,52.0,17.3,30.07,NNE,17,2.0,4.0,25,0.00,,---,0.00,VWS V14.00,2016-12-03 14:59:00,
2016-12-03 07:04:00,52.2,17.5,30.07,ENE,69,3.0,5.0,25,0.00,,---,0.00,VWS V14.00,2016-12-03 15:04:00,
2016-12-03 07:09:00,52.6,17.8,30.07,NNE,21,2.0,6.0,25,0.00,,---,0.00,VWS V14.00,2016-12-03 15:09:00,
2016-12-03 07:14:00,53.0,17.2,30.07,ENE,70,5.0,5.0,24,0.00,,---,0.00,VWS V14.00,2016-12-03 15:14:00,
2016-12-03 07:19:00,53.3,17.5,30.07,NNE,19,2.0,6.0,24,0.00,,---,0.00,VWS V14.00,2016-12-03 15:19:00,
2016-12-03 07:24:00,53.7,17.8,30.07,NE,35,5.0,6.0,24,0.00,,---,0.00,VWS V14.00,2016-12-03 15:24:00,
2016-12-03 07:29:00,53.9,18.9,30.07,NNE,21,0.0,1.0,25,0.00,,---,0.00,VWS V14.00,2016-12-03 15:29:00,
2016-12-03 07:34:00,54.0,18.0,30.07,NE,34,8.0,8.0,24,0.00,,---,0.00,VWS V14.00,2016-12-03 15:34:00,
2016-12-03 07:39:00,54.2,18.2,30.08,NE,39,2.0,4.0,24,0.00,,---,0.00,VWS V14.00,2016-12-03 15:39:00,
2016-12-03 07:44:00,54.4,18.4,30.07,North,355,1.0,2.0,24,0.00,,---,0.00,VWS V14.00,2016-12-03 15:44:00,
2016-12-03 07:49:00,54.6,19.5,30.08,NNE,31,0.0,2.0,25,0.00,,---,0.00,VWS V14.00,2016-12-03 15:49:00,
2016-12-03 07:54:00,54.9,18.8,30.08,ENE,62,0.0,4.0,24,0.00,,---,0.00,VWS V14.00,2016-12-03 15:54:00,
2016-12-03 07:59:00,55.2,19.1,30.07,NE,41,4.0,5.0,24,0.00,,---,0.00,VWS V14.00,2016-12-03 15:59:00,
2016-12-03 08:04:00,55.6,19.4,30.07,NE,38,3.0,4.0,24,0.00,,---,0.00,VWS V14.00,2016-12-03 16:04:00,
2016-12-03 08:09:00,56.0,18.8,30.08,ENE,69,6.0,6.0,23,0.00,,---,0.00,VWS V14.00,2016-12-03 16:09:00,
2016-12-03 08:14:00,56.5,19.2,30.08,East,90,2.0,6.0,23,0.00,,---,0.00,VWS V14.00,2016-12-03 16:14:00,
2016-12-03 08:19:00,57.0,20.6,30.08,NE,53,4.0,5.0,24,0.00,,---,0.00,VWS V14.00,2016-12-03 16:19:00,
2016-12-03 08:24:00,57.6,18.0,30.08,NE,53,4.0,7.0,21,0.00,,---,0.00,VWS V14.00,2016-12-03 16:24:00,
2016-12-03 08:29:00,58.2,19.6,30.08,ESE,108,1.0,6.0,22,0.00,,---,0.00,VWS V14.00,2016-12-03 16:29:00,
2016-12-03 08:34:00,58.5,20.9,30.08,NE,41,1.0,3.0,23,0.00,,---,0.00,VWS V14.00,2016-12-03 16:34:00,
2016-12-03 08:39:00,58.9,22.2,30.09,NNW,333,2.0,4.0,24,0.00,,---,0.00,VWS V14.00,2016-12-03 16:39:00,
2016-12-03 08:44:00,59.2,20.4,30.09,NNE,33,5.0,6.0,22,0.00,,---,0.00,VWS V14.00,2016-12-03 16:44:00,
2016-12-03 08:49:00,59.4,20.6,30.09,NE,36,1.0,6.0,22,0.00,,---,0.00,VWS V14.00,2016-12-03 16:49:00,
2016-12-03 08:54:00,59.6,20.7,30.09,East,83,3.0,4.0,22,0.00,,---,0.00,VWS V14.00,2016-12-03 16:54:00,
2016-12-03 08:59:00,59.9,22.0,30.09,ENE,67,1.0,3.0,23,0.00,,---,0.00,VWS V14.00,2016-12-03 16:59:00,
2016-12-03 09:04:00,60.1,23.2,30.09,ENE,70,1.0,3.0,24,0.00,,---,0.00,VWS V14.00,2016-12-03 17:04:00,
2016-12-03 09:09:00,60.7,22.7,30.09,ENE,61,1.0,4.0,23,0.00,,---,0.00,VWS V14.00,2016-12-03 17:09:00,
2016-12-03 09:14:00,61.2,22.1,30.10,East,83,2.0,3.0,22,0.00,,---,0.00,VWS V14.00,2016-12-03 17:14:00,
2016-12-03 09:19:00,61.5,22.3,30.10,ENE,77,2.0,3.0,22,0.00,,---,0.00,VWS V14.00,2016-12-03 17:19:00,
2016-12-03 09:24:00,61.8,22.6,30.10,NE,43,0.0,1.0,22,0.00,,---,0.00,VWS V14.00,2016-12-03 17:24:00,
2016-12-03 09:29:00,61.9,22.7,30.11,NNW,342,5.0,6.0,22,0.00,,---,0.00,VWS V14.00,2016-12-03 17:29:00,
2016-12-03 09:34:00,61.9,22.7,30.11,NNW,343,1.0,4.0,22,0.00,,---,0.00,VWS V14.00,2016-12-03 17:34:00,
2016-12-03 09:39:00,61.9,21.6,30.11,NNW,343,1.0,4.0,21,0.00,,---,0.00,VWS V14.00,2016-12-03 17:39:00,
2016-12-03 09:44:00,62.1,21.7,30.11,NNW,344,4.0,4.0,21,0.00,,---,0.00,VWS V14.00,2016-12-03 17:44:00,
2016-12-03 09:49:00,62.3,23.0,30.11,NNW,344,1.0,4.0,22,0.00,,---,0.00,VWS V14.00,2016-12-03 17:49:00,
2016-12-03 09:54:00,62.8,22.3,30.10,NNE,20,0.0,3.0,21,0.00,,---,0.00,VWS V14.00,2016-12-03 17:54:00,
2016-12-03 09:59:00,63.0,23.6,30.10,NNE,19,0.0,1.0,22,0.00,,---,0.00,VWS V14.00,2016-12-03 17:59:00,
2016-12-03 10:04:00,63.1,22.6,30.10,NNE,24,0.0,1.0,21,0.00,,---,0.00,VWS V14.00,2016-12-03 18:04:00,
2016-12-03 10:09:00,63.3,22.7,30.11,NNE,24,1.0,2.0,21,0.00,,---,0.00,VWS V14.00,2016-12-03 18:09:00,
2016-12-03 10:14:00,63.4,22.8,30.11,NNE,24,2.0,3.0,21,0.00,,---,0.00,VWS V14.00,2016-12-03 18:14:00,
2016-12-03 10:19:00,63.6,20.6,30.10,NNE,24,1.0,2.0,19,0.00,,---,0.00,VWS V14.00,2016-12-03 18:19:00,
2016-12-03 10:24:00,63.9,20.9,30.10,NW,305,4.0,5.0,19,0.00,,---,0.00,VWS V14.00,2016-12-03 18:24:00,
2016-12-03 10:29:00,64.3,26.8,30.10,West,276,1.0,4.0,24,0.00,,---,0.00,VWS V14.00,2016-12-03 18:29:00,
2016-12-03 10:34:00,64.4,28.8,30.10,WSW,252,5.0,5.0,26,0.00,,---,0.00,VWS V14.00,2016-12-03 18:34:00,
2016-12-03 10:39:00,64.5,29.8,30.10,West,259,3.0,3.0,27,0.00,,---,0.00,VWS V14.00,2016-12-03 18:39:00,
2016-12-03 10:44:00,64.5,30.7,30.10,West,260,3.0,4.0,28,0.00,,---,0.00,VWS V14.00,2016-12-03 18:44:00,
2016-12-03 10:49:00,64.6,27.0,30.09,WSW,249,1.0,3.0,24,0.00,,---,0.00,VWS V14.00,2016-12-03 18:49:00,
2016-12-03 10:54:00,64.8,30.1,30.09,WSW,240,5.0,5.0,27,0.00,,---,0.00,VWS V14.00,2016-12-03 18:54:00,
2016-12-03 10:59:00,65.0,24.1,30.09,WSW,241,0.0,1.0,21,0.00,,---,0.00,VWS V14.00,2016-12-03 18:59:00,
2016-12-03 11:04:00,65.4,26.7,30.09,WSW,249,4.0,5.0,23,0.00,,---,0.00,VWS V14.00,2016-12-03 19:04:00,
2016-12-03 11:09:00,65.9,28.1,30.08,WSW,239,2.0,4.0,24,0.00,,---,0.00,VWS V14.00,2016-12-03 19:09:00,
2016-12-03 11:14:00,66.2,24.0,30.08,WSW,241,0.0,1.0,20,0.00,,---,0.00,VWS V14.00,2016-12-03 19:14:00,
2016-12-03 11:19:00,66.5,26.5,30.08,WSW,251,3.0,3.0,22,0.00,,---,0.00,VWS V14.00,2016-12-03 19:19:00,
2016-12-03 11:24:00,67.0,26.9,30.07,WSW,244,1.0,5.0,22,0.00,,---,0.00,VWS V14.00,2016-12-03 19:24:00,
2016-12-03 11:29:00,67.2,24.8,30.07,West,269,3.0,3.0,20,0.00,,---,0.00,VWS V14.00,2016-12-03 19:29:00,
2016-12-03 11:34:00,67.2,22.3,30.06,WSW,250,3.0,5.0,18,0.00,,---,0.00,VWS V14.00,2016-12-03 19:34:00,
2016-12-03 11:39:00,67.0,22.1,30.06,West,267,3.0,3.0,18,0.00,,---,0.00,VWS V14.00,2016-12-03 19:39:00,
2016-12-03 11:44:00,67.3,21.0,30.06,West,259,3.0,5.0,17,0.00,,---,0.00,VWS V14.00,2016-12-03 19:44:00,
2016-12-03 11:49:00,67.7,22.7,30.06,West,269,4.0,5.0,18,0.00,,---,0.00,VWS V14.00,2016-12-03 19:49:00,
2016-12-03 11:54:00,68.2,23.1,30.06,WSW,240,3.0,6.0,18,0.00,,---,0.00,VWS V14.00,2016-12-03 19:54:00,
2016-12-03 11:59:00,68.1,24.3,30.06,West,261,4.0,4.0,19,0.00,,---,0.00,VWS V14.00,2016-12-03 19:59:00,
2016-12-03 12:04:00,67.9,22.9,30.05,West,259,3.0,5.0,18,0.00,,---,0.00,VWS V14.00,2016-12-03 20:04:00,
2016-12-03 12:09:00,68.1,18.7,30.05,WSW,257,4.0,6.0,15,0.00,,---,0.00,VWS V14.00,2016-12-03 20:09:00,
2016-12-03 12:14:00,68.0,20.2,30.05,WNW,285,2.0,6.0,16,0.00,,---,0.00,VWS V14.00,2016-12-03 20:14:00,
2016-12-03 12:19:00,68.3,17.3,30.04,West,264,10.0,12.0,14,0.00,,---,0.00,VWS V14.00,2016-12-03 20:19:00,
2016-12-03 12:24:00,67.7,37.6,30.04,WSW,245,3.0,7.0,33,0.00,,---,0.00,VWS V14.00,2016-12-03 20:24:00,
2016-12-03 12:29:00,66.1,35.4,30.04,West,263,5.0,9.0,32,0.00,,---,0.00,VWS V14.00,2016-12-03 20:29:00,
2016-12-03 12:34:00,65.8,34.3,30.04,West,265,7.0,13.0,31,0.00,,---,0.00,VWS V14.00,2016-12-03 20:34:00,
2016-12-03 12:39:00,65.7,35.8,30.04,West,269,6.0,11.0,33,0.00,,---,0.00,VWS V14.00,2016-12-03 20:39:00,
2016-12-03 12:44:00,65.7,35.1,30.04,West,273,8.0,11.0,32,0.00,,---,0.00,VWS V14.00,2016-12-03 20:44:00,
2016-12-03 12:49:00,65.8,38.1,30.04,WSW,251,8.0,8.0,36,0.00,,---,0.00,VWS V14.00,2016-12-03 20:49:00,
2016-12-03 12:54:00,65.9,39.6,30.04,West,271,9.0,12.0,38,0.00,,---,0.00,VWS V14.00,2016-12-03 20:54:00,
2016-12-03 12:59:00,66.0,39.0,30.04,NW,307,6.0,8.0,37,0.00,,---,0.00,VWS V14.00,2016-12-03 20:59:00,
2016-12-03 13:04:00,66.1,39.8,30.03,WSW,248,7.0,8.0,38,0.00,,---,0.00,VWS V14.00,2016-12-03 21:04:00,
2016-12-03 13:09:00,65.9,40.3,30.03,SW,225,5.0,5.0,39,0.00,,---,0.00,VWS V14.00,2016-12-03 21:09:00,
2016-12-03 13:14:00,66.0,41.7,30.04,West,263,6.0,9.0,41,0.00,,---,0.00,VWS V14.00,2016-12-03 21:14:00,
2016-12-03 13:19:00,65.6,43.1,30.03,WNW,283,4.0,11.0,44,0.00,,---,0.00,VWS V14.00,2016-12-03 21:19:00,
2016-12-03 13:29:00,65.4,40.5,30.04,WNW,292,1.0,5.0,40,0.00,,---,0.00,VWS V14.00,2016-12-03 21:29:00,
2016-12-03 13:34:00,65.9,40.3,30.03,NW,313,2.0,5.0,39,0.00,,---,0.00,VWS V14.00,2016-12-03 21:34:00,
2016-12-03 13:39:00,66.5,42.7,30.03,NNW,329,1.0,5.0,42,0.00,,---,0.00,VWS V14.00,2016-12-03 21:39:00,
2016-12-03 13:44:00,66.8,42.4,30.02,West,267,3.0,3.0,41,0.00,,---,0.00,VWS V14.00,2016-12-03 21:44:00,
2016-12-03 13:49:00,66.8,41.7,30.02,NW,315,8.0,11.0,40,0.00,,---,0.00,VWS V14.00,2016-12-03 21:49:00,
2016-12-03 13:54:00,66.3,42.5,30.02,WNW,288,6.0,7.0,42,0.00,,---,0.00,VWS V14.00,2016-12-03 21:54:00,
2016-12-03 13:59:00,65.9,38.2,30.02,West,276,7.0,8.0,36,0.00,,---,0.00,VWS V14.00,2016-12-03 21:59:00,
2016-12-03 14:04:00,65.9,38.9,30.03,WNW,302,5.0,7.0,37,0.00,,---,0.00,VWS V14.00,2016-12-03 22:04:00,
2016-12-03 14:09:00,66.2,36.3,30.02,North,360,3.0,6.0,33,0.00,,---,0.00,VWS V14.00,2016-12-03 22:09:00,
2016-12-03 14:14:00,66.1,36.2,30.03,NW,320,6.0,9.0,33,0.00,,---,0.00,VWS V14.00,2016-12-03 22:14:00,
2016-12-03 14:19:00,65.9,36.0,30.03,WNW,300,9.0,11.0,33,0.00,,---,0.00,VWS V14.00,2016-12-03 22:19:00,
2016-12-03 14:24:00,65.9,35.2,30.03,NW,314,5.0,6.0,32,0.00,,---,0.00,VWS V14.00,2016-12-03 22:24:00,
2016-12-03 14:29:00,65.7,36.6,30.02,WNW,291,9.0,9.0,34,0.00,,---,0.00,VWS V14.00,2016-12-03 22:29:00,
2016-12-03 14:34:00,65.6,38.7,30.03,West,264,4.0,6.0,37,0.00,,---,0.00,VWS V14.00,2016-12-03 22:34:00,
2016-12-03 14:39:00,65.6,38.7,30.03,WNW,298,4.0,6.0,37,0.00,,---,0.00,VWS V14.00,2016-12-03 22:39:00,
2016-12-03 14:44:00,65.5,38.6,30.02,West,277,7.0,7.0,37,0.00,,---,0.00,VWS V14.00,2016-12-03 22:44:00,
2016-12-03 14:49:00,65.4,39.2,30.02,West,279,7.0,8.0,38,0.00,,---,0.00,VWS V14.00,2016-12-03 22:49:00,
2016-12-03 14:54:00,64.9,39.4,30.02,NNW,347,9.0,9.0,39,0.00,,---,0.00,VWS V14.00,2016-12-03 22:54:00,
2016-12-03 14:59:00,64.8,39.3,30.02,NNW,327,4.0,8.0,39,0.00,,---,0.00,VWS V14.00,2016-12-03 22:59:00,
2016-12-03 15:04:00,64.8,38.6,30.02,WNW,300,6.0,11.0,38,0.00,,---,0.00,VWS V14.00,2016-12-03 23:04:00,
2016-12-03 15:09:00,64.7,39.8,30.02,West,279,5.0,9.0,40,0.00,,---,0.00,VWS V14.00,2016-12-03 23:09:00,
2016-12-03 15:14:00,64.5,40.9,30.02,NW,313,6.0,7.0,42,0.00,,---,0.00,VWS V14.00,2016-12-03 23:14:00,
2016-12-03 15:19:00,64.5,41.5,30.02,North,5,6.0,6.0,43,0.00,,---,0.00,VWS V14.00,2016-12-03 23:19:00,
2016-12-03 15:24:00,64.6,42.8,30.02,North,5,5.0,5.0,45,0.00,,---,0.00,VWS V14.00,2016-12-03 23:24:00,
2016-12-03 15:29:00,64.5,42.1,30.02,West,279,5.0,5.0,44,0.00,,---,0.00,VWS V14.00,2016-12-03 23:29:00,
2016-12-03 15:34:00,64.2,42.4,30.02,West,268,3.0,3.0,45,0.00,,---,0.00,VWS V14.00,2016-12-03 23:34:00,
2016-12-03 15:39:00,63.8,42.6,30.02,NW,319,6.0,6.0,46,0.00,,---,0.00,VWS V14.00,2016-12-03 23:39:00,
2016-12-03 15:44:00,63.4,42.8,30.02,NW,319,6.0,6.0,47,0.00,,---,0.00,VWS V14.00,2016-12-03 23:44:00,
2016-12-03 15:49:00,63.2,43.7,30.02,WNW,288,7.0,8.0,49,0.00,,---,0.00,VWS V14.00,2016-12-03 23:49:00,
2016-12-03 15:54:00,63.0,43.0,30.02,NW,308,7.0,8.0,48,0.00,,---,0.00,VWS V14.00,2016-12-03 23:54:00,
2016-12-03 15:59:00,62.8,43.4,30.02,WNW,288,5.0,6.0,49,0.00,,---,0.00,VWS V14.00,2016-12-03 23:59:00,
2016-12-03 16:04:00,62.7,43.3,30.02,NW,320,1.0,2.0,49,0.00,,---,0.00,VWS V14.00,2016-12-04 00:04:00,
2016-12-03 16:09:00,62.5,43.6,30.02,NW,315,5.0,5.0,50,0.00,,---,0.00,VWS V14.00,2016-12-04 00:09:00,
2016-12-03 16:14:00,62.4,44.6,30.02,WNW,294,2.0,2.0,52,0.00,,---,0.00,VWS V14.00,2016-12-04 00:14:00,
2016-12-03 16:19:00,62.1,45.3,30.02,NW,323,4.0,4.0,54,0.00,,---,0.00,VWS V14.00,2016-12-04 00:19:00,
2016-12-03 16:24:00,61.8,45.5,30.02,NNW,328,2.0,5.0,55,0.00,,---,0.00,VWS V14.00,2016-12-04 00:24:00,
2016-12-03 16:29:00,61.4,45.6,30.02,NW,307,2.0,2.0,56,0.00,,---,0.00,VWS V14.00,2016-12-04 00:29:00,
2016-12-03 16:39:00,60.8,45.0,30.02,NNW,335,0.0,1.0,56,0.00,,---,0.00,VWS V14.00,2016-12-04 00:39:00,
2016-12-03 16:44:00,60.5,45.2,30.02,NNW,337,4.0,5.0,57,0.00,,---,0.00,VWS V14.00,2016-12-04 00:44:00,
2016-12-03 16:49:00,60.2,45.4,30.02,NNW,338,2.0,5.0,58,0.00,,---,0.00,VWS V14.00,2016-12-04 00:49:00,
2016-12-03 16:54:00,59.9,45.5,30.02,NNW,339,0.0,2.0,59,0.00,,---,0.00,VWS V14.00,2016-12-04 00:54:00,
2016-12-03 16:59:00,59.6,45.3,30.02,NNW,340,0.0,0.0,59,0.00,,---,0.00,VWS V14.00,2016-12-04 00:59:00,
2016-12-03 17:04:00,59.2,45.8,30.02,NNW,333,4.0,5.0,61,0.00,,---,0.00,VWS V14.00,2016-12-04 01:04:00,
2016-12-03 17:09:00,58.9,45.9,30.02,NNW,338,4.0,4.0,62,0.00,,---,0.00,VWS V14.00,2016-12-04 01:09:00,
2016-12-03 17:14:00,58.6,46.1,30.02,NNW,338,2.0,2.0,63,0.00,,---,0.00,VWS V14.00,2016-12-04 01:14:00,
2016-12-03 17:19:00,58.5,46.4,30.02,North,355,5.0,5.0,64,0.00,,---,0.00,VWS V14.00,2016-12-04 01:19:00,
2016-12-03 17:24:00,58.3,46.2,30.02,NW,325,4.0,4.0,64,0.00,,---,0.00,VWS V14.00,2016-12-04 01:24:00,
2016-12-03 17:29:00,58.0,46.3,30.02,NW,325,0.0,0.0,65,0.00,,---,0.00,VWS V14.00,2016-12-04 01:29:00,
2016-12-03 17:34:00,57.8,46.1,30.02,NW,325,0.0,0.0,65,0.00,,---,0.00,VWS V14.00,2016-12-04 01:34:00,
2016-12-03 17:39:00,57.6,45.9,30.02,NW,325,0.0,0.0,65,0.00,,---,0.00,VWS V14.00,2016-12-04 01:39:00,
2016-12-03 17:44:00,57.4,45.8,30.02,NW,325,0.0,0.0,65,0.00,,---,0.00,VWS V14.00,2016-12-04 01:44:00,
2016-12-03 17:49:00,57.0,45.4,30.02,NW,325,0.0,0.0,65,0.00,,---,0.00,VWS V14.00,2016-12-04 01:49:00,
2016-12-03 17:54:00,56.6,45.4,30.02,NW,325,0.0,0.0,66,0.00,,---,0.00,VWS V14.00,2016-12-04 01:54:00,
2016-12-03 17:59:00,56.1,44.9,30.03,NW,325,0.0,0.0,66,0.00,,---,0.00,VWS V14.00,2016-12-04 01:59:00,
2016-12-03 18:04:00,55.6,44.4,30.03,NW,325,0.0,0.0,66,0.00,,---,0.00,VWS V14.00,2016-12-04 02:04:00,
2016-12-03 18:09:00,55.1,44.3,30.03,NW,325,0.0,0.0,67,0.00,,---,0.00,VWS V14.00,2016-12-04 02:09:00,
2016-12-03 18:14:00,54.7,43.6,30.03,NW,325,0.0,0.0,66,0.00,,---,0.00,VWS V14.00,2016-12-04 02:14:00,
2016-12-03 18:19:00,54.4,43.3,30.03,NW,325,0.0,0.0,66,0.00,,---,0.00,VWS V14.00,2016-12-04 02:19:00,
2016-12-03 18:24:00,54.1,43.0,30.03,NW,325,0.0,0.0,66,0.00,,---,0.00,VWS V14.00,2016-12-04 02:24:00,
2016-12-03 18:29:00,53.8,42.3,30.03,NW,325,0.0,0.0,65,0.00,,---,0.00,VWS V14.00,2016-12-04 02:29:00,
2016-12-03 18:34:00,53.5,42.0,30.03,NW,325,0.0,0.0,65,0.00,,---,0.00,VWS V14.00,2016-12-04 02:34:00,
2016-12-03 18:39:00,53.3,41.8,30.03,NW,325,1.0,1.0,65,0.00,,---,0.00,VWS V14.00,2016-12-04 02:39:00,
2016-12-03 18:44:00,53.2,41.8,30.03,NW,325,0.0,0.0,65,0.00,,---,0.00,VWS V14.00,2016-12-04 02:44:00,
2016-12-03 18:49:00,53.1,42.1,30.03,NW,325,0.0,0.0,66,0.00,,---,0.00,VWS V14.00,2016-12-04 02:49:00,
2016-12-03 18:54:00,52.9,42.3,30.03,NW,325,0.0,0.0,67,0.00,,---,0.00,VWS V14.00,2016-12-04 02:54:00,
2016-12-03 18:59:00,52.6,42.0,30.03,NW,325,0.0,0.0,67,0.00,,---,0.00,VWS V14.00,2016-12-04 02:59:00,
2016-12-03 19:04:00,52.3,42.1,30.03,NW,325,0.0,0.0,68,0.00,,---,0.00,VWS V14.00,2016-12-04 03:04:00,
2016-12-03 19:09:00,52.0,42.2,30.03,NW,325,0.0,0.0,69,0.00,,---,0.00,VWS V14.00,2016-12-04 03:09:00,
2016-12-03 19:14:00,51.8,42.3,30.03,NW,325,0.0,0.0,70,0.00,,---,0.00,VWS V14.00,2016-12-04 03:14:00,
2016-12-03 19:19:00,51.8,42.7,30.03,NW,325,0.0,0.0,71,0.00,,---,0.00,VWS V14.00,2016-12-04 03:19:00,
2016-12-03 19:24:00,51.8,43.1,30.03,NW,325,0.0,0.0,72,0.00,,---,0.00,VWS V14.00,2016-12-04 03:24:00,
2016-12-03 19:29:00,51.7,43.0,30.03,NW,325,0.0,1.0,72,0.00,,---,0.00,VWS V14.00,2016-12-04 03:29:00,
2016-12-03 19:34:00,51.5,43.1,30.03,NW,325,0.0,0.0,73,0.00,,---,0.00,VWS V14.00,2016-12-04 03:34:00,
2016-12-03 19:39:00,51.5,43.5,30.02,NW,325,0.0,0.0,74,0.00,,---,0.00,VWS V14.00,2016-12-04 03:39:00,
2016-12-03 19:44:00,51.3,43.3,30.03,NW,325,0.0,0.0,74,0.00,,---,0.00,VWS V14.00,2016-12-04 03:44:00,
2016-12-03 19:49:00,51.1,43.5,30.03,NW,325,0.0,1.0,75,0.00,,---,0.00,VWS V14.00,2016-12-04 03:49:00,
2016-12-03 19:53:00,51.3,43.3,30.03,NW,325,0.0,1.0,74,0.00,,---,0.00,VWS V14.00,2016-12-04 03:53:00,
2016-12-03 19:58:00,51.4,43.0,30.03,NW,325,0.0,0.0,73,0.00,,---,0.00,VWS V14.00,2016-12-04 03:58:00,
2016-12-03 20:04:00,51.4,43.0,30.03,NW,325,1.0,2.0,73,0.00,,---,0.00,VWS V14.00,2016-12-04 04:04:00,
2016-12-03 20:09:00,51.3,42.2,30.03,ENE,65,0.0,2.0,71,0.00,,---,0.00,VWS V14.00,2016-12-04 04:09:00,
2016-12-03 20:14:00,51.5,41.7,30.03,ENE,65,0.0,1.0,69,0.00,,---,0.00,VWS V14.00,2016-12-04 04:14:00,
2016-12-03 20:19:00,51.8,41.6,30.03,ENE,65,1.0,2.0,68,0.00,,---,0.00,VWS V14.00,2016-12-04 04:19:00,
2016-12-03 20:24:00,51.8,41.6,30.03,ENE,65,0.0,2.0,68,0.00,,---,0.00,VWS V14.00,2016-12-04 04:24:00,
2016-12-03 20:29:00,51.5,41.3,30.03,ENE,65,0.0,0.0,68,0.00,,---,0.00,VWS V14.00,2016-12-04 04:29:00,
2016-12-03 20:33:00,51.2,41.0,30.03,ENE,65,0.0,0.0,68,0.00,,---,0.00,VWS V14.00,2016-12-04 04:33:00,
2016-12-03 20:38:00,51.1,40.9,30.03,ENE,65,0.0,0.0,68,0.00,,---,0.00,VWS V14.00,2016-12-04 04:38:00,
2016-12-03 20:43:00,50.8,40.6,30.03,ENE,65,0.0,0.0,68,0.00,,---,0.00,VWS V14.00,2016-12-04 04:43:00,
2016-12-03 20:48:00,50.6,40.4,30.03,ENE,65,0.0,0.0,68,0.00,,---,0.00,VWS V14.00,2016-12-04 04:48:00,
2016-12-03 20:53:00,50.6,40.4,30.03,ENE,65,0.0,0.0,68,0.00,,---,0.00,VWS V14.00,2016-12-04 04:53:00,
2016-12-03 20:58:00,51.0,39.7,30.03,ENE,67,1.0,2.0,65,0.00,,---,0.00,VWS V14.00,2016-12-04 04:58:00,
2016-12-03 21:03:00,51.4,40.4,30.04,ENE,68,0.0,2.0,66,0.00,,---,0.00,VWS V14.00,2016-12-04 05:03:00,
2016-12-03 21:08:00,51.2,40.2,30.04,ENE,69,0.0,1.0,66,0.00,,---,0.00,VWS V14.00,2016-12-04 05:08:00,
2016-12-03 21:13:00,51.0,40.1,30.04,ENE,69,0.0,1.0,66,0.00,,---,0.00,VWS V14.00,2016-12-04 05:13:00,
2016-12-03 21:18:00,50.9,38.4,30.04,ENE,69,1.0,3.0,62,0.00,,---,0.00,VWS V14.00,2016-12-04 05:18:00,
2016-12-03 21:23:00,51.0,37.6,30.04,ENE,70,2.0,3.0,60,0.00,,---,0.00,VWS V14.00,2016-12-04 05:23:00,
2016-12-03 21:28:00,51.2,36.5,30.04,ENE,71,0.0,2.0,57,0.00,,---,0.00,VWS V14.00,2016-12-04 05:28:00,
2016-12-03 21:33:00,51.0,38.0,30.03,ENE,71,0.0,0.0,61,0.00,,---,0.00,VWS V14.00,2016-12-04 05:33:00,
2016-12-03 21:38:00,50.8,38.3,30.03,ENE,71,0.0,0.0,62,0.00,,---,0.00,VWS V14.00,2016-12-04 05:38:00,
2016-12-03 21:44:00,50.4,37.9,30.03,ENE,71,0.0,0.0,62,0.00,,---,0.00,VWS V14.00,2016-12-04 05:44:00,
2016-12-03 21:48:00,49.7,35.1,30.03,ENE,77,0.0,2.0,57,0.00,,---,0.00,VWS V14.00,2016-12-04 05:48:00,
2016-12-03 21:54:00,50.0,34.0,30.03,East,82,0.0,2.0,54,0.00,,---,0.00,VWS V14.00,2016-12-04 05:54:00,
2016-12-03 21:59:00,50.1,36.3,30.03,East,82,2.0,2.0,59,0.00,,---,0.00,VWS V14.00,2016-12-04 05:59:00,
2016-12-03 22:04:00,50.1,33.2,30.03,East,86,1.0,3.0,52,0.00,,---,0.00,VWS V14.00,2016-12-04 06:04:00,
2016-12-03 22:08:00,50.4,34.4,30.03,East,86,0.0,3.0,54,0.00,,---,0.00,VWS V14.00,2016-12-04 06:08:00,
2016-12-03 22:13:00,50.3,33.8,30.04,East,86,0.0,0.0,53,0.00,,---,0.00,VWS V14.00,2016-12-04 06:13:00,
2016-12-03 22:18:00,50.0,34.0,30.04,East,86,0.0,1.0,54,0.00,,---,0.00,VWS V14.00,2016-12-04 06:18:00,
2016-12-03 22:23:00,49.7,33.8,30.04,East,86,0.0,0.0,54,0.00,,---,0.00,VWS V14.00,2016-12-04 06:23:00,
2016-12-03 22:28:00,49.8,32.4,30.04,ESE,109,2.0,5.0,51,0.00,,---,0.00,VWS V14.00,2016-12-04 06:28:00,
2016-12-03 22:33:00,50.5,32.1,30.04,ESE,109,0.0,4.0,49,0.00,,---,0.00,VWS V14.00,2016-12-04 06:33:00,
2016-12-03 22:38:00,50.6,33.2,30.04,ESE,109,0.0,2.0,51,0.00,,---,0.00,VWS V14.00,2016-12-04 06:38:00,
2016-12-03 22:43:00,50.4,32.5,30.04,ESE,109,0.0,1.0,50,0.00,,---,0.00,VWS V14.00,2016-12-04 06:43:00,
2016-12-03 22:48:00,50.0,33.1,30.04,ESE,109,0.0,0.0,52,0.00,,---,0.00,VWS V14.00,2016-12-04 06:48:00,
2016-12-03 22:53:00,49.4,33.0,30.04,ESE,109,0.0,0.0,53,0.00,,---,0.00,VWS V14.00,2016-12-04 06:53:00,
2016-12-03 22:58:00,49.0,32.2,30.04,ESE,109,1.0,2.0,52,0.00,,---,0.00,VWS V14.00,2016-12-04 06:58:00,
2016-12-03 23:03:00,48.9,32.5,30.05,ESE,109,0.0,2.0,53,0.00,,---,0.00,VWS V14.00,2016-12-04 07:03:00,
2016-12-03 23:08:00,48.8,32.4,30.05,ESE,109,0.0,0.0,53,0.00,,---,0.00,VWS V14.00,2016-12-04 07:08:00,
2016-12-03 23:13:00,48.7,32.3,30.05,ESE,109,0.0,0.0,53,0.00,,---,0.00,VWS V14.00,2016-12-04 07:13:00,
2016-12-03 23:18:00,48.5,32.6,30.04,ESE,109,0.0,1.0,54,0.00,,---,0.00,VWS V14.00,2016-12-04 07:18:00,
2016-12-03 23:23:00,48.4,33.0,30.04,ESE,109,0.0,0.0,55,0.00,,---,0.00,VWS V14.00,2016-12-04 07:23:00,
2016-12-03 23:28:00,48.2,32.8,30.04,ESE,109,0.0,0.0,55,0.00,,---,0.00,VWS V14.00,2016-12-04 07:28:00,
2016-12-03 23:33:00,48.0,33.5,30.04,ESE,109,0.0,0.0,57,0.00,,---,0.00,VWS V14.00,2016-12-04 07:33:00,
2016-12-03 23:38:00,47.5,33.9,30.05,ESE,109,0.0,0.0,59,0.00,,---,0.00,VWS V14.00,2016-12-04 07:38:00,
2016-12-03 23:43:00,47.1,33.5,30.05,ESE,109,0.0,0.0,59,0.00,,---,0.00,VWS V14.00,2016-12-04 07:43:00,
2016-12-03 23:48:00,46.8,34.1,30.05,ESE,109,0.0,0.0,61,0.00,,---,0.00,VWS V14.00,2016-12-04 07:48:00,